User: anonymous   Login
Location: Caltech
(34.1382°N, 118.1253°W)
Time: 22:56:56
(UTC-07:00)
Language:

JAS-1B - Orbit

View from above orbital plane
View from above orbital plane
View from above satellite
View from above satellite

Ground track
Ground track

The orbit data is extracted from the following two-line orbital elements,

1 20480U 90013C   15243.19670044  .00000015  00000-0  97864-4 0  9997
2 20480 099.0567 129.3390 0541040 077.6842 032.0479 12.83407276197571
Epoch (UTC): 31 August 2015 04:43:14
Eccentricity: 0.0541040
inclination: 99.0567°
perigee height: 911 km
apogee height: 1745 km
right ascension of ascending node: 129.3390°
argument of perigee: 77.6842°
revolutions per day: 12.83407276
mean anomaly at epoch: 32.0479°
orbit number at epoch: 19757

The dashed part of the orbit path shows where the satellite is in the earth's shadow,  

DLR